Location: Ajisawe
(8.4333°N, 4.3833°E)
Time: 14:15:03
(UTC+00:00)

Courier 1B Rocket - Pass Details

Date: 30 April 2021
Orbit: 920 x 1202 km, 28.2° (Epoch: 07 May)

Event Time Altitude Azimuth Distance (km) Brightness Sun altitude
Rises 12:24:34 0° 246° (WSW) 3,757 8.2 77.2°
Reaches altitude 10° 12:27:21 10° 249° (WSW) 2,763 7.7 76.6°
Maximum altitude 12:33:58 70° 332° (NNW) 1,010 7.5 75.2°
Drops below altitude 10° 12:40:14 10° 55° (NE) 2,620 7.3 73.8°
Sets 12:42:49 0° 58° (ENE) 3,549 7.8 73.2°
